contact:dominique.lefevre@mio.osupytheas.fr, maurice.libes@osupytheas.fr, didier.mallarino@osupytheas.fr
Project:EMSO http://www.emso-fr.org/EMSO-France
Depth: 2436.0 m
Title:EMSO Ligure Ouest : Data MII capteur MICROCAT
DateTime_Computer,Latitude,Longitude,Temperature,Conductivity,Pressure,DateTime_Instrument
DateTime_Computer,Latitude,Longitude,degC,S m-1,dbar,DateTime_Instrument
2022-11-25T00:00:21Z,42.805,6.029,13.3014,4.60058,2470.483,2022-11-25T02:02:20Z
2022-11-25T00:03:24Z,42.805,6.029,13.3013,4.60058,2470.507,2022-11-25T02:05:23Z
2022-11-25T00:06:27Z,42.805,6.029,13.3013,4.60058,2470.53,2022-11-25T02:08:26Z
2022-11-25T00:09:30Z,42.805,6.029,13.3012,4.60059,2470.53,2022-11-25T02:11:29Z
2022-11-25T00:12:33Z,42.805,6.029,13.3014,4.60059,2470.52,2022-11-25T02:14:32Z
2022-11-25T00:15:37Z,42.805,6.029,13.3011,4.60057,2470.53,2022-11-25T02:17:36Z
2022-11-25T00:18:40Z,42.805,6.029,13.3010,4.60061,2470.52,2022-11-25T02:20:39Z
2022-11-25T00:21:43Z,42.805,6.029,13.3010,4.60058,2470.507,2022-11-25T02:23:42Z
2022-11-25T00:24:46Z,42.805,6.029,13.3009,4.60057,2470.544,2022-11-25T02:26:45Z
2022-11-25T00:27:49Z,42.805,6.029,13.3010,4.60057,2470.483,2022-11-25T02:29:48Z
2022-11-25T00:30:52Z,42.805,6.029,13.3011,4.60055,2470.507,2022-11-25T02:32:51Z
2022-11-25T00:33:55Z,42.805,6.029,13.3009,4.60054,2470.507,2022-11-25T02:35:54Z
2022-11-25T00:36:58Z,42.805,6.029,13.3009,4.60054,2470.52,2022-11-25T02:38:57Z
2022-11-25T00:40:01Z,42.805,6.029,13.3009,4.60054,2470.53,2022-11-25T02:42:00Z
2022-11-25T00:43:04Z,42.805,6.029,13.3009,4.60055,2470.53,2022-11-25T02:45:03Z
2022-11-25T00:46:07Z,42.805,6.029,13.3009,4.60054,2470.497,2022-11-25T02:48:06Z
2022-11-25T00:49:10Z,42.805,6.029,13.3008,4.60055,2470.483,2022-11-25T02:51:09Z
2022-11-25T00:52:13Z,42.805,6.029,13.3009,4.60053,2470.497,2022-11-25T02:54:12Z
2022-11-25T00:55:17Z,42.805,6.029,13.3009,4.60052,2470.507,2022-11-25T02:57:16Z
2022-11-25T00:58:20Z,42.805,6.029,13.3006,4.60053,2470.52,2022-11-25T03:00:19Z
2022-11-25T01:01:23Z,42.805,6.029,13.3010,4.60054,2470.483,2022-11-25T03:03:22Z
2022-11-25T01:04:26Z,42.805,6.029,13.3011,4.60052,2470.507,2022-11-25T03:06:25Z
2022-11-25T01:07:29Z,42.805,6.029,13.3009,4.60055,2470.507,2022-11-25T03:09:28Z
2022-11-25T01:10:32Z,42.805,6.029,13.3007,4.60054,2470.52,2022-11-25T03:12:31Z
2022-11-25T01:13:35Z,42.805,6.029,13.3003,4.60052,2470.52,2022-11-25T03:15:34Z
2022-11-25T01:16:38Z,42.805,6.029,13.3008,4.60052,2470.53,2022-11-25T03:18:37Z
2022-11-25T01:19:41Z,42.805,6.029,13.3004,4.60053,2470.497,2022-11-25T03:21:40Z
2022-11-25T01:22:44Z,42.805,6.029,13.3005,4.60053,2470.483,2022-11-25T03:24:43Z
2022-11-25T01:25:47Z,42.805,6.029,13.3011,4.60052,2470.52,2022-11-25T03:27:46Z
2022-11-25T01:28:50Z,42.805,6.029,13.3004,4.60053,2470.507,2022-11-25T03:30:49Z
2022-11-25T01:31:53Z,42.805,6.029,13.3005,4.60053,2470.497,2022-11-25T03:33:53Z
2022-11-25T01:34:57Z,42.805,6.029,13.3006,4.60052,2470.507,2022-11-25T03:36:56Z
2022-11-25T01:38:00Z,42.805,6.029,13.3006,4.60052,2470.507,2022-11-25T03:39:59Z
2022-11-25T01:41:03Z,42.805,6.029,13.3011,4.60053,2470.497,2022-11-25T03:43:02Z
2022-11-25T01:44:06Z,42.805,6.029,13.3006,4.60052,2470.497,2022-11-25T03:46:05Z
2022-11-25T01:47:09Z,42.805,6.029,13.3004,4.60054,2470.507,2022-11-25T03:49:08Z
2022-11-25T01:50:12Z,42.805,6.029,13.3008,4.60052,2470.507,2022-11-25T03:52:11Z
2022-11-25T01:53:15Z,42.805,6.029,13.3009,4.60053,2470.483,2022-11-25T03:55:14Z
2022-11-25T01:56:18Z,42.805,6.029,13.3009,4.60052,2470.52,2022-11-25T03:58:17Z
2022-11-25T01:59:21Z,42.805,6.029,13.3004,4.60053,2470.507,2022-11-25T04:01:20Z
2022-11-25T02:02:24Z,42.805,6.029,13.3009,4.60054,2470.507,2022-11-25T04:04:23Z
2022-11-25T02:05:27Z,42.805,6.029,13.3009,4.60054,2470.497,2022-11-25T04:07:26Z
2022-11-25T02:08:30Z,42.805,6.029,13.3010,4.60052,2470.483,2022-11-25T04:10:29Z
2022-11-25T02:11:33Z,42.805,6.029,13.3005,4.60053,2470.507,2022-11-25T04:13:33Z
2022-11-25T02:14:37Z,42.805,6.029,13.3008,4.60052,2470.507,2022-11-25T04:16:36Z
2022-11-25T02:17:40Z,42.805,6.029,13.3009,4.60053,2470.544,2022-11-25T04:19:39Z
2022-11-25T02:20:43Z,42.805,6.029,13.3008,4.60054,2470.507,2022-11-25T04:22:42Z
2022-11-25T02:23:46Z,42.805,6.029,13.3007,4.60052,2470.53,2022-11-25T04:25:45Z
2022-11-25T02:26:49Z,42.805,6.029,13.3010,4.60052,2470.507,2022-11-25T04:28:48Z
2022-11-25T02:29:52Z,42.805,6.029,13.3009,4.60052,2470.544,2022-11-25T04:31:51Z
2022-11-25T02:32:55Z,42.805,6.029,13.3006,4.60052,2470.507,2022-11-25T04:34:54Z
2022-11-25T02:35:58Z,42.805,6.029,13.3005,4.60052,2470.507,2022-11-25T04:37:57Z
2022-11-25T02:39:01Z,42.805,6.029,13.3004,4.60053,2470.46,2022-11-25T04:41:00Z
2022-11-25T02:42:04Z,42.805,6.029,13.3006,4.60053,2470.507,2022-11-25T04:44:03Z
2022-11-25T02:45:07Z,42.805,6.029,13.3007,4.60054,2470.53,2022-11-25T04:47:06Z
2022-11-25T02:48:10Z,42.805,6.029,13.3008,4.60054,2470.544,2022-11-25T04:50:09Z
2022-11-25T02:51:13Z,42.805,6.029,13.3006,4.60052,2470.52,2022-11-25T04:53:13Z
2022-11-25T02:54:17Z,42.805,6.029,13.3008,4.60052,2470.507,2022-11-25T04:56:16Z
2022-11-25T02:57:20Z,42.805,6.029,13.3007,4.60053,2470.53,2022-11-25T04:59:19Z
2022-11-25T03:00:23Z,42.805,6.029,13.3009,4.60054,2470.52,2022-11-25T05:02:22Z
2022-11-25T03:03:26Z,42.805,6.029,13.3006,4.60054,2470.53,2022-11-25T05:05:25Z
2022-11-25T03:06:29Z,42.805,6.029,13.3004,4.60052,2470.507,2022-11-25T05:08:28Z
2022-11-25T03:09:32Z,42.805,6.029,13.3006,4.60052,2470.52,2022-11-25T05:11:31Z
2022-11-25T03:12:35Z,42.805,6.029,13.3004,4.60053,2470.53,2022-11-25T05:14:34Z
2022-11-25T03:15:38Z,42.805,6.029,13.3006,4.60052,2470.553,2022-11-25T05:17:37Z
2022-11-25T03:18:41Z,42.805,6.029,13.3006,4.60054,2470.53,2022-11-25T05:20:40Z
2022-11-25T03:21:44Z,42.805,6.029,13.3007,4.60053,2470.516,2022-11-25T05:23:43Z
2022-11-25T03:24:47Z,42.805,6.029,13.3007,4.60054,2470.553,2022-11-25T05:26:46Z
2022-11-25T03:27:50Z,42.805,6.029,13.3006,4.60053,2470.544,2022-11-25T05:29:49Z
2022-11-25T03:30:54Z,42.805,6.029,13.3005,4.60053,2470.53,2022-11-25T05:32:53Z
2022-11-25T03:33:57Z,42.805,6.029,13.3007,4.60054,2470.553,2022-11-25T05:35:56Z
2022-11-25T03:37:00Z,42.805,6.029,13.3009,4.60054,2470.544,2022-11-25T05:38:59Z
2022-11-25T03:40:03Z,42.805,6.029,13.3006,4.60055,2470.567,2022-11-25T05:42:02Z
2022-11-25T03:43:06Z,42.805,6.029,13.3008,4.60053,2470.544,2022-11-25T05:45:05Z
2022-11-25T03:46:09Z,42.805,6.029,13.3007,4.60055,2470.544,2022-11-25T05:48:08Z
2022-11-25T03:49:12Z,42.805,6.029,13.3011,4.60053,2470.553,2022-11-25T05:51:11Z
2022-11-25T03:52:15Z,42.805,6.029,13.3009,4.60054,2470.53,2022-11-25T05:54:14Z
2022-11-25T03:55:18Z,42.805,6.029,13.3009,4.60055,2470.591,2022-11-25T05:57:17Z
2022-11-25T03:58:21Z,42.805,6.029,13.3002,4.60054,2470.577,2022-11-25T06:00:20Z
2022-11-25T04:01:24Z,42.805,6.029,13.3011,4.60054,2470.577,2022-11-25T06:03:23Z
2022-11-25T04:04:27Z,42.805,6.029,13.3009,4.60054,2470.6,2022-11-25T06:06:26Z
2022-11-25T04:07:30Z,42.805,6.029,13.3007,4.60056,2470.567,2022-11-25T06:09:29Z
2022-11-25T04:10:34Z,42.805,6.029,13.3007,4.60054,2470.577,2022-11-25T06:12:33Z
2022-11-25T04:13:37Z,42.805,6.029,13.3009,4.60055,2470.6,2022-11-25T06:15:36Z
2022-11-25T04:16:40Z,42.805,6.029,13.3009,4.60054,2470.577,2022-11-25T06:18:39Z
2022-11-25T04:19:43Z,42.805,6.029,13.3005,4.60054,2470.577,2022-11-25T06:21:42Z
2022-11-25T04:22:46Z,42.805,6.029,13.3006,4.60054,2470.6,2022-11-25T06:24:45Z
2022-11-25T04:25:49Z,42.805,6.029,13.3008,4.60054,2470.577,2022-11-25T06:27:48Z
2022-11-25T04:28:52Z,42.805,6.029,13.3008,4.60054,2470.6,2022-11-25T06:30:51Z
2022-11-25T04:31:55Z,42.805,6.029,13.3009,4.60054,2470.577,2022-11-25T06:33:54Z
2022-11-25T04:34:58Z,42.805,6.029,13.3004,4.60054,2470.614,2022-11-25T06:36:57Z
2022-11-25T04:38:01Z,42.805,6.029,13.3008,4.60054,2470.646,2022-11-25T06:40:00Z
2022-11-25T04:41:04Z,42.805,6.029,13.3008,4.60054,2470.624,2022-11-25T06:43:03Z
2022-11-25T04:44:07Z,42.805,6.029,13.3006,4.60054,2470.637,2022-11-25T06:46:06Z
2022-11-25T04:47:10Z,42.805,6.029,13.3007,4.60055,2470.637,2022-11-25T06:49:10Z
2022-11-25T04:50:14Z,42.805,6.029,13.3004,4.60053,2470.646,2022-11-25T06:52:13Z
2022-11-25T04:53:17Z,42.805,6.029,13.3009,4.60053,2470.637,2022-11-25T06:55:16Z
2022-11-25T04:56:20Z,42.805,6.029,13.3008,4.60054,2470.67,2022-11-25T06:58:19Z
2022-11-25T04:59:23Z,42.805,6.029,13.3009,4.60054,2470.661,2022-11-25T07:01:22Z
2022-11-25T05:02:26Z,42.805,6.029,13.3009,4.60055,2470.646,2022-11-25T07:04:25Z
2022-11-25T05:05:29Z,42.805,6.029,13.3008,4.60057,2470.624,2022-11-25T07:07:28Z
2022-11-25T05:08:32Z,42.805,6.029,13.3006,4.60054,2470.661,2022-11-25T07:10:31Z
2022-11-25T05:11:35Z,42.805,6.029,13.3007,4.60055,2470.646,2022-11-25T07:13:34Z
2022-11-25T05:14:38Z,42.805,6.029,13.3009,4.60055,2470.693,2022-11-25T07:16:37Z
2022-11-25T05:17:41Z,42.805,6.029,13.3007,4.60054,2470.646,2022-11-25T07:19:40Z
2022-11-25T05:20:44Z,42.805,6.029,13.3006,4.60054,2470.67,2022-11-25T07:22:43Z
2022-11-25T05:23:47Z,42.805,6.029,13.3001,4.60055,2470.646,2022-11-25T07:25:46Z
2022-11-25T05:26:50Z,42.805,6.029,13.3007,4.60054,2470.633,2022-11-25T07:28:50Z
2022-11-25T05:29:54Z,42.805,6.029,13.3011,4.60056,2470.707,2022-11-25T07:31:53Z
2022-11-25T05:32:57Z,42.805,6.029,13.3009,4.60055,2470.67,2022-11-25T07:34:56Z
2022-11-25T05:36:00Z,42.805,6.029,13.3009,4.60054,2470.67,2022-11-25T07:37:59Z
2022-11-25T05:39:03Z,42.805,6.029,13.3009,4.60056,2470.707,2022-11-25T07:41:02Z
2022-11-25T05:42:06Z,42.805,6.029,13.3009,4.60055,2470.693,2022-11-25T07:44:05Z
2022-11-25T05:45:09Z,42.805,6.029,13.3009,4.60056,2470.693,2022-11-25T07:47:08Z
2022-11-25T05:48:12Z,42.805,6.029,13.3014,4.60056,2470.717,2022-11-25T07:50:11Z
2022-11-25T05:51:15Z,42.805,6.029,13.3009,4.60057,2470.73,2022-11-25T07:53:14Z
2022-11-25T05:54:18Z,42.805,6.029,13.3010,4.60055,2470.73,2022-11-25T07:56:17Z
2022-11-25T05:57:21Z,42.805,6.029,13.3009,4.60057,2470.67,2022-11-25T07:59:20Z
2022-11-25T06:00:24Z,42.805,6.029,13.3010,4.60055,2470.73,2022-11-25T08:02:23Z
2022-11-25T06:03:27Z,42.805,6.029,13.3011,4.60057,2470.73,2022-11-25T08:05:26Z
2022-11-25T06:06:30Z,42.805,6.029,13.3009,4.60055,2470.717,2022-11-25T08:08:30Z
2022-11-25T06:09:34Z,42.805,6.029,13.3007,4.60057,2470.73,2022-11-25T08:11:33Z
2022-11-25T06:12:37Z,42.805,6.029,13.3011,4.60056,2470.74,2022-11-25T08:14:36Z
2022-11-25T06:15:40Z,42.805,6.029,13.3009,4.60055,2470.717,2022-11-25T08:17:39Z
2022-11-25T06:18:43Z,42.805,6.029,13.3009,4.60057,2470.754,2022-11-25T08:20:42Z
2022-11-25T06:21:46Z,42.805,6.029,13.3011,4.60057,2470.73,2022-11-25T08:23:45Z
2022-11-25T06:24:49Z,42.805,6.029,13.3012,4.60057,2470.717,2022-11-25T08:26:48Z
2022-11-25T06:27:52Z,42.805,6.029,13.3009,4.60057,2470.763,2022-11-25T08:29:51Z
2022-11-25T06:30:55Z,42.805,6.029,13.3009,4.60057,2470.74,2022-11-25T08:32:54Z
2022-11-25T06:33:58Z,42.805,6.029,13.3010,4.60058,2470.74,2022-11-25T08:35:57Z
2022-11-25T06:37:01Z,42.805,6.029,13.3012,4.60059,2470.763,2022-11-25T08:39:00Z
2022-11-25T06:40:04Z,42.805,6.029,13.3011,4.60057,2470.74,2022-11-25T08:42:03Z
2022-11-25T06:43:07Z,42.805,6.029,13.3009,4.60057,2470.763,2022-11-25T08:45:07Z
2022-11-25T06:46:11Z,42.805,6.029,13.3011,4.60058,2470.74,2022-11-25T08:48:10Z
2022-11-25T06:49:14Z,42.805,6.029,13.3008,4.60057,2470.74,2022-11-25T08:51:13Z
2022-11-25T06:52:17Z,42.805,6.029,13.3010,4.60059,2470.75,2022-11-25T08:54:16Z
2022-11-25T06:55:20Z,42.805,6.029,13.3010,4.60060,2470.8,2022-11-25T08:57:19Z
2022-11-25T06:58:23Z,42.805,6.029,13.3013,4.60058,2470.763,2022-11-25T09:00:22Z
2022-11-25T07:01:26Z,42.805,6.029,13.3011,4.60057,2470.777,2022-11-25T09:03:25Z
2022-11-25T07:04:29Z,42.805,6.029,13.3011,4.60057,2470.75,2022-11-25T09:06:28Z
2022-11-25T07:07:32Z,42.805,6.029,13.3009,4.60058,2470.763,2022-11-25T09:09:31Z
2022-11-25T07:10:35Z,42.805,6.029,13.3008,4.60059,2470.74,2022-11-25T09:12:34Z
2022-11-25T07:13:38Z,42.805,6.029,13.3009,4.60058,2470.763,2022-11-25T09:15:37Z
2022-11-25T07:16:41Z,42.805,6.029,13.3011,4.60063,2470.787,2022-11-25T09:18:40Z
2022-11-25T07:19:44Z,42.805,6.029,13.3011,4.60061,2470.763,2022-11-25T09:21:43Z
2022-11-25T07:22:47Z,42.805,6.029,13.3011,4.60058,2470.787,2022-11-25T09:24:46Z
2022-11-25T07:25:51Z,42.805,6.029,13.3009,4.60058,2470.81,2022-11-25T09:27:50Z
2022-11-25T07:28:54Z,42.805,6.029,13.3012,4.60059,2470.8,2022-11-25T09:30:53Z
2022-11-25T07:31:57Z,42.805,6.029,13.3011,4.60062,2470.787,2022-11-25T09:33:56Z
2022-11-25T07:35:00Z,42.805,6.029,13.3006,4.60059,2470.773,2022-11-25T09:36:59Z
2022-11-25T07:38:03Z,42.805,6.029,13.3009,4.60058,2470.787,2022-11-25T09:40:02Z
2022-11-25T07:41:06Z,42.805,6.029,13.3013,4.60058,2470.81,2022-11-25T09:43:05Z
2022-11-25T07:44:09Z,42.805,6.029,13.3011,4.60059,2470.787,2022-11-25T09:46:08Z
2022-11-25T07:47:12Z,42.805,6.029,13.3011,4.60062,2470.763,2022-11-25T09:49:11Z
2022-11-25T07:50:15Z,42.805,6.029,13.3010,4.60062,2470.763,2022-11-25T09:52:14Z
2022-11-25T07:53:18Z,42.805,6.029,13.3012,4.60060,2470.8,2022-11-25T09:55:17Z
2022-11-25T07:56:21Z,42.805,6.029,13.3010,4.60060,2470.81,2022-11-25T09:58:20Z
2022-11-25T07:59:24Z,42.805,6.029,13.3015,4.60058,2470.787,2022-11-25T10:01:23Z
2022-11-25T08:02:28Z,42.805,6.029,13.3014,4.60060,2470.8,2022-11-25T10:04:27Z
2022-11-25T08:05:31Z,42.805,6.029,13.3014,4.60059,2470.787,2022-11-25T10:07:30Z
2022-11-25T08:08:34Z,42.805,6.029,13.3011,4.60060,2470.763,2022-11-25T10:10:33Z
2022-11-25T08:11:37Z,42.805,6.029,13.3010,4.60060,2470.777,2022-11-25T10:13:36Z
2022-11-25T08:14:40Z,42.805,6.029,13.3010,4.60059,2470.796,2022-11-25T10:16:39Z
2022-11-25T08:17:43Z,42.805,6.029,13.3013,4.60061,2470.787,2022-11-25T10:19:42Z
2022-11-25T08:20:46Z,42.805,6.029,13.3013,4.60058,2470.787,2022-11-25T10:22:45Z
2022-11-25T08:23:49Z,42.805,6.029,13.3012,4.60061,2470.787,2022-11-25T10:25:48Z
2022-11-25T08:26:52Z,42.805,6.029,13.3010,4.60060,2470.8,2022-11-25T10:28:51Z
2022-11-25T08:29:55Z,42.805,6.029,13.3014,4.60061,2470.787,2022-11-25T10:31:54Z
2022-11-25T08:32:58Z,42.805,6.029,13.3012,4.60064,2470.787,2022-11-25T10:34:57Z
2022-11-25T08:36:01Z,42.805,6.029,13.3014,4.60062,2470.81,2022-11-25T10:38:00Z
2022-11-25T08:39:04Z,42.805,6.029,13.3014,4.60062,2470.787,2022-11-25T10:41:04Z
2022-11-25T08:42:08Z,42.805,6.029,13.3011,4.60063,2470.787,2022-11-25T10:44:07Z
2022-11-25T08:45:11Z,42.805,6.029,13.3011,4.60061,2470.787,2022-11-25T10:47:10Z
2022-11-25T08:48:14Z,42.805,6.029,13.3013,4.60062,2470.824,2022-11-25T10:50:13Z
2022-11-25T08:51:17Z,42.805,6.029,13.3010,4.60062,2470.763,2022-11-25T10:53:16Z
2022-11-25T08:54:20Z,42.805,6.029,13.3014,4.60063,2470.787,2022-11-25T10:56:19Z
2022-11-25T08:57:23Z,42.805,6.029,13.3017,4.60062,2470.787,2022-11-25T10:59:22Z
2022-11-25T09:00:26Z,42.805,6.029,13.3011,4.60064,2470.777,2022-11-25T11:02:25Z
2022-11-25T09:03:29Z,42.805,6.029,13.3011,4.60062,2470.763,2022-11-25T11:05:28Z
2022-11-25T09:06:32Z,42.805,6.029,13.3011,4.60062,2470.787,2022-11-25T11:08:31Z
2022-11-25T09:09:35Z,42.805,6.029,13.3009,4.60062,2470.787,2022-11-25T11:11:34Z
2022-11-25T09:12:38Z,42.805,6.029,13.3011,4.60064,2470.777,2022-11-25T11:14:37Z
2022-11-25T09:15:42Z,42.805,6.029,13.3012,4.60062,2470.787,2022-11-25T11:17:41Z
2022-11-25T09:18:45Z,42.805,6.029,13.3007,4.60061,2470.777,2022-11-25T11:20:44Z
2022-11-25T09:21:48Z,42.805,6.029,13.3013,4.60063,2470.763,2022-11-25T11:23:47Z
2022-11-25T09:24:51Z,42.805,6.029,13.3008,4.60064,2470.81,2022-11-25T11:26:50Z
2022-11-25T09:27:54Z,42.805,6.029,13.3013,4.60061,2470.787,2022-11-25T11:29:53Z
2022-11-25T09:30:57Z,42.805,6.029,13.3011,4.60062,2470.787,2022-11-25T11:32:56Z
2022-11-25T09:34:00Z,42.805,6.029,13.3015,4.60064,2470.74,2022-11-25T11:35:59Z
2022-11-25T09:37:03Z,42.805,6.029,13.3013,4.60062,2470.754,2022-11-25T11:39:02Z
2022-11-25T09:40:06Z,42.805,6.029,13.3013,4.60062,2470.717,2022-11-25T11:42:05Z
2022-11-25T09:43:09Z,42.805,6.029,13.3014,4.60062,2470.74,2022-11-25T11:45:08Z
2022-11-25T09:46:12Z,42.805,6.029,13.3013,4.60062,2470.763,2022-11-25T11:48:11Z
2022-11-25T09:49:15Z,42.805,6.029,13.3011,4.60061,2470.763,2022-11-25T11:51:14Z
2022-11-25T09:52:19Z,42.805,6.029,13.3011,4.60062,2470.787,2022-11-25T11:54:18Z
2022-11-25T09:55:22Z,42.805,6.029,13.3013,4.60062,2470.763,2022-11-25T11:57:21Z
2022-11-25T09:58:25Z,42.805,6.029,13.3015,4.60062,2470.777,2022-11-25T12:00:24Z
2022-11-25T10:01:28Z,42.805,6.029,13.3011,4.60064,2470.763,2022-11-25T12:03:27Z
2022-11-25T10:04:31Z,42.805,6.029,13.3015,4.60062,2470.754,2022-11-25T12:06:30Z
2022-11-25T10:07:34Z,42.805,6.029,13.3012,4.60062,2470.717,2022-11-25T12:09:33Z
2022-11-25T10:10:37Z,42.805,6.029,13.3014,4.60061,2470.717,2022-11-25T12:12:36Z
2022-11-25T10:13:40Z,42.805,6.029,13.3015,4.60061,2470.726,2022-11-25T12:15:39Z
2022-11-25T10:16:43Z,42.805,6.029,13.3015,4.60063,2470.74,2022-11-25T12:18:42Z
2022-11-25T10:19:46Z,42.805,6.029,13.3015,4.60060,2470.777,2022-11-25T12:21:45Z
2022-11-25T10:22:49Z,42.805,6.029,13.3011,4.60062,2470.717,2022-11-25T12:24:48Z
2022-11-25T10:25:52Z,42.805,6.029,13.3014,4.60062,2470.74,2022-11-25T12:27:51Z
2022-11-25T10:28:56Z,42.805,6.029,13.3013,4.60062,2470.74,2022-11-25T12:30:55Z
2022-11-25T10:31:59Z,42.805,6.029,13.3013,4.60061,2470.717,2022-11-25T12:33:58Z
2022-11-25T10:35:02Z,42.805,6.029,13.3011,4.60061,2470.693,2022-11-25T12:37:01Z
2022-11-25T10:38:05Z,42.805,6.029,13.3010,4.60064,2470.73,2022-11-25T12:40:04Z
2022-11-25T10:41:08Z,42.805,6.029,13.3012,4.60061,2470.717,2022-11-25T12:43:07Z
2022-11-25T10:44:11Z,42.805,6.029,13.3012,4.60062,2470.693,2022-11-25T12:46:10Z
2022-11-25T10:47:14Z,42.805,6.029,13.3009,4.60060,2470.717,2022-11-25T12:49:13Z
2022-11-25T10:50:17Z,42.805,6.029,13.3016,4.60061,2470.73,2022-11-25T12:52:16Z
2022-11-25T10:53:20Z,42.805,6.029,13.3009,4.60061,2470.717,2022-11-25T12:55:19Z
2022-11-25T10:56:23Z,42.805,6.029,13.3013,4.60062,2470.73,2022-11-25T12:58:22Z
2022-11-25T10:59:26Z,42.805,6.029,13.3011,4.60062,2470.721,2022-11-25T13:01:25Z
2022-11-25T11:02:29Z,42.805,6.029,13.3011,4.60061,2470.754,2022-11-25T13:04:28Z
2022-11-25T11:05:32Z,42.805,6.029,13.3015,4.60062,2470.717,2022-11-25T13:07:32Z
2022-11-25T11:08:36Z,42.805,6.029,13.3013,4.60061,2470.693,2022-11-25T13:10:35Z
2022-11-25T11:11:39Z,42.805,6.029,13.3012,4.60061,2470.717,2022-11-25T13:13:38Z
2022-11-25T11:14:42Z,42.805,6.029,13.3014,4.60061,2470.67,2022-11-25T13:16:41Z
2022-11-25T11:17:45Z,42.805,6.029,13.3013,4.60060,2470.661,2022-11-25T13:19:44Z
2022-11-25T11:20:48Z,42.805,6.029,13.3015,4.60062,2470.717,2022-11-25T13:22:47Z
2022-11-25T11:23:51Z,42.805,6.029,13.3013,4.60060,2470.717,2022-11-25T13:25:50Z
2022-11-25T11:26:54Z,42.805,6.029,13.3009,4.60059,2470.73,2022-11-25T13:28:53Z
2022-11-25T11:29:57Z,42.805,6.029,13.3011,4.60062,2470.684,2022-11-25T13:31:56Z
2022-11-25T11:33:00Z,42.805,6.029,13.3013,4.60062,2470.693,2022-11-25T13:34:59Z
2022-11-25T11:36:03Z,42.805,6.029,13.3016,4.60060,2470.67,2022-11-25T13:38:02Z
2022-11-25T11:39:06Z,42.805,6.029,13.3014,4.60062,2470.67,2022-11-25T13:41:05Z
2022-11-25T11:42:09Z,42.805,6.029,13.3012,4.60062,2470.624,2022-11-25T13:44:09Z
2022-11-25T11:45:13Z,42.805,6.029,13.3013,4.60061,2470.67,2022-11-25T13:47:12Z
2022-11-25T11:48:16Z,42.805,6.029,13.3012,4.60061,2470.67,2022-11-25T13:50:15Z
2022-11-25T11:51:19Z,42.805,6.029,13.3014,4.60062,2470.693,2022-11-25T13:53:18Z
2022-11-25T11:54:22Z,42.805,6.029,13.3015,4.60062,2470.646,2022-11-25T13:56:21Z
2022-11-25T11:57:25Z,42.805,6.029,13.3011,4.60061,2470.67,2022-11-25T13:59:24Z
2022-11-25T12:00:28Z,42.805,6.029,13.3015,4.60061,2470.67,2022-11-25T14:02:27Z
2022-11-25T12:03:31Z,42.805,6.029,13.3013,4.60061,2470.67,2022-11-25T14:05:30Z
2022-11-25T12:06:34Z,42.805,6.029,13.3014,4.60062,2470.67,2022-11-25T14:08:33Z
2022-11-25T12:09:37Z,42.805,6.029,13.3011,4.60062,2470.661,2022-11-25T14:11:36Z
2022-11-25T12:12:40Z,42.805,6.029,13.3012,4.60062,2470.661,2022-11-25T14:14:39Z
2022-11-25T12:15:43Z,42.805,6.029,13.3011,4.60062,2470.646,2022-11-25T14:17:42Z
2022-11-25T12:18:46Z,42.805,6.029,13.3013,4.60063,2470.661,2022-11-25T14:20:46Z
2022-11-25T12:21:50Z,42.805,6.029,13.3014,4.60061,2470.661,2022-11-25T14:23:49Z
2022-11-25T12:24:53Z,42.805,6.029,13.3014,4.60061,2470.6,2022-11-25T14:26:52Z
2022-11-25T12:27:56Z,42.805,6.029,13.3019,4.60062,2470.684,2022-11-25T14:29:55Z
2022-11-25T12:30:59Z,42.805,6.029,13.3014,4.60062,2470.646,2022-11-25T14:32:58Z
2022-11-25T12:34:02Z,42.805,6.029,13.3015,4.60062,2470.646,2022-11-25T14:36:01Z
2022-11-25T12:37:05Z,42.805,6.029,13.3011,4.60062,2470.637,2022-11-25T14:39:04Z
2022-11-25T12:40:08Z,42.805,6.029,13.3018,4.60062,2470.624,2022-11-25T14:42:07Z
2022-11-25T12:43:11Z,42.805,6.029,13.3015,4.60062,2470.684,2022-11-25T14:45:10Z
2022-11-25T12:46:14Z,42.805,6.029,13.3011,4.60061,2470.646,2022-11-25T14:48:13Z
2022-11-25T12:49:17Z,42.805,6.029,13.3008,4.60061,2470.637,2022-11-25T14:51:16Z
2022-11-25T12:52:20Z,42.805,6.029,13.3011,4.60062,2470.624,2022-11-25T14:54:19Z
2022-11-25T12:55:23Z,42.805,6.029,13.3020,4.60061,2470.646,2022-11-25T14:57:23Z
2022-11-25T12:58:27Z,42.805,6.029,13.3013,4.60062,2470.624,2022-11-25T15:00:26Z
2022-11-25T13:01:30Z,42.805,6.029,13.3010,4.60060,2470.637,2022-11-25T15:03:29Z
2022-11-25T13:04:33Z,42.805,6.029,13.3011,4.60060,2470.577,2022-11-25T15:06:32Z
2022-11-25T13:07:36Z,42.805,6.029,13.3014,4.60061,2470.661,2022-11-25T15:09:35Z
2022-11-25T13:10:39Z,42.805,6.029,13.3015,4.60062,2470.614,2022-11-25T15:12:38Z
2022-11-25T13:13:42Z,42.805,6.029,13.3013,4.60062,2470.577,2022-11-25T15:15:41Z
2022-11-25T13:16:45Z,42.805,6.029,13.3015,4.60061,2470.624,2022-11-25T15:18:44Z
2022-11-25T13:19:48Z,42.805,6.029,13.3013,4.60062,2470.6,2022-11-25T15:21:47Z
2022-11-25T13:22:51Z,42.805,6.029,13.3015,4.60062,2470.6,2022-11-25T15:24:50Z
2022-11-25T13:25:54Z,42.805,6.029,13.3011,4.60061,2470.614,2022-11-25T15:27:53Z
2022-11-25T13:28:57Z,42.805,6.029,13.3015,4.60062,2470.6,2022-11-25T15:30:56Z
2022-11-25T13:32:00Z,42.805,6.029,13.3010,4.60061,2470.577,2022-11-25T15:34:00Z
2022-11-25T13:35:04Z,42.805,6.029,13.3015,4.60061,2470.6,2022-11-25T15:37:03Z
2022-11-25T13:38:07Z,42.805,6.029,13.3013,4.60061,2470.553,2022-11-25T15:40:06Z
2022-11-25T13:41:10Z,42.805,6.029,13.3010,4.60062,2470.6,2022-11-25T15:43:09Z
2022-11-25T13:44:13Z,42.805,6.029,13.3014,4.60061,2470.6,2022-11-25T15:46:12Z
2022-11-25T13:47:16Z,42.805,6.029,13.3013,4.60061,2470.6,2022-11-25T15:49:15Z
2022-11-25T13:50:19Z,42.805,6.029,13.3014,4.60062,2470.591,2022-11-25T15:52:18Z
2022-11-25T13:53:22Z,42.805,6.029,13.3011,4.60061,2470.6,2022-11-25T15:55:21Z
2022-11-25T13:56:25Z,42.805,6.029,13.3014,4.60060,2470.6,2022-11-25T15:58:24Z
2022-11-25T13:59:28Z,42.805,6.029,13.3014,4.60061,2470.614,2022-11-25T16:01:27Z
2022-11-25T14:02:31Z,42.805,6.029,13.3013,4.60062,2470.591,2022-11-25T16:04:30Z
2022-11-25T14:05:34Z,42.805,6.029,13.3011,4.60061,2470.6,2022-11-25T16:07:33Z
2022-11-25T14:08:37Z,42.805,6.029,13.3012,4.60062,2470.6,2022-11-25T16:10:36Z
2022-11-25T14:11:41Z,42.805,6.029,13.3015,4.60062,2470.577,2022-11-25T16:13:40Z
2022-11-25T14:14:44Z,42.805,6.029,13.3015,4.60062,2470.591,2022-11-25T16:16:43Z
2022-11-25T14:17:47Z,42.805,6.029,13.3010,4.60062,2470.6,2022-11-25T16:19:46Z
2022-11-25T14:20:50Z,42.805,6.029,13.3010,4.60061,2470.591,2022-11-25T16:22:49Z
2022-11-25T14:23:53Z,42.805,6.029,13.3013,4.60062,2470.591,2022-11-25T16:25:52Z
2022-11-25T14:26:56Z,42.805,6.029,13.3014,4.60062,2470.586,2022-11-25T16:28:55Z
2022-11-25T14:29:59Z,42.805,6.029,13.3017,4.60062,2470.6,2022-11-25T16:31:58Z
2022-11-25T14:33:02Z,42.805,6.029,13.3015,4.60062,2470.6,2022-11-25T16:35:01Z
2022-11-25T14:36:05Z,42.805,6.029,13.3015,4.60062,2470.553,2022-11-25T16:38:04Z
2022-11-25T14:39:08Z,42.805,6.029,13.3012,4.60061,2470.591,2022-11-25T16:41:07Z
2022-11-25T14:42:11Z,42.805,6.029,13.3014,4.60061,2470.577,2022-11-25T16:44:10Z
2022-11-25T14:45:14Z,42.805,6.029,13.3015,4.60062,2470.53,2022-11-25T16:47:13Z
2022-11-25T14:48:17Z,42.805,6.029,13.3012,4.60062,2470.6,2022-11-25T16:50:17Z
2022-11-25T14:51:21Z,42.805,6.029,13.3015,4.60060,2470.577,2022-11-25T16:53:20Z
2022-11-25T14:54:24Z,42.805,6.029,13.3015,4.60062,2470.6,2022-11-25T16:56:23Z
2022-11-25T14:57:27Z,42.805,6.029,13.3019,4.60059,2470.577,2022-11-25T16:59:26Z
2022-11-25T15:00:30Z,42.805,6.029,13.3014,4.60062,2470.614,2022-11-25T17:02:29Z